[[{"header":{"parameterUnit":"m.s-1","parameterCategory":2,"la1":30.2991,"la2":30.254,"lo1":-89.0895,"lo2":-89.0444,"dy":0.0017,"dx":0.0017,"nx":28,"ny":28,"refTime":"2023-08-27T03:00:00:Z","depth":"0","parameterNumber":2,"parameterNumberName":"U-component_of_CURRENTS"},"data":[0,0,0,0,0,0,0,0,0,0,0,0,0,0,0,0,0,0,0,0,0,0,0,0,0,0,0,0,0,0,0,0,0,0,0,0,0,0,0,0,0,0,0,0,0,0,0,0,0,0,0,0,0,0,0,0,0,0,0.2885,0.2886,0,0.2935,0.2936,0.2936,0.2934,0.2933,0.2933,0.2932,0.2916,0.2916,0.2916,0,0,0,0,0,0,0,0,0,0,0,0,0,0.2792,0.2793,0.2885,0.2886,0.2887,0.2935,0.2936,0.2936,0.2934,0.2933,0.2932,0.2932,0.2916,0.2916,0.2916,0,0,0,0,0,0,0,0,0,0,0,0,0,0.2834,0.2794,0.2885,0.2893,0.2894,0.2935,0.2936,0.2936,0.2934,0.2933,0.2932,0.2932,0.2916,0.2916,0.2916,0.2931,0,0,0.2916,0.2916,0,0,0,0,0,0,0,0,0.2832,0.2837,0.2891,0.2892,0.2894,0.293,0.2897,0.2932,0.2934,0.2916,0.2932,0.2931,0.2916,0.2916,0.2925,0.293,0.2929,0.2916,0.2916,0.2916,0.2916,0,0,0,0,0,0,0,0.2829,0.2835,0.2902,0.2892,0.2894,0.2896,0.2901,0.2904,0.2917,0.2918,0.2918,0.2928,0.2916,0.2925,0.2924,0.2929,0.2916,0.2916,0.2916,0.2916,0.2951,0.2952,0,0,0,0,0,0,0.2828,0.2832,0.2901,0.2904,0.2863,0.2899,0.2904,0.2917,0.2918,0.2919,0.2929,0.2928,0.2925,0.2924,0.2924,0.2941,0.2916,0.2916,0.2916,0.295,0.2951,0.2952,0,0,0,0,0,0,0.2826,0.2834,0.2899,0.2871,0.288,0.2901,0.2916,0.2918,0.293,0.2928,0.2926,0.2938,0.2925,0.2923,0.2929,0.294,0.2916,0.2916,0.2949,0.295,0.2952,0.2977,0,0,0,0,0,0,0.2823,0.2833,0.2843,0.2871,0.2881,0.2937,0.2917,0.292,0.2939,0.2938,0.2936,0.2933,0.2924,0.2929,0.2929,0.294,0.2916,0.2948,0.295,0.2951,0.2975,0.2979,0.2982,0,0,0,0,0,0.282,0.2841,0.2843,0.2852,0.2894,0.2939,0.2945,0.2955,0.294,0.2959,0.2946,0.2933,0.2939,0.293,0.2929,0.2941,0.2947,0.2949,0.2951,0.2973,0.2978,0.2982,0,0,0,0,0,0,0.2806,0.2844,0.2847,0.2878,0.2911,0.2939,0.2959,0.296,0.2967,0.2959,0.2944,0.2942,0.2954,0.2946,0.2936,0.2957,0.2942,0.2944,0.2959,0.2963,0.2967,0.3022,0.2916,0,0,0,0,0,0.2809,0.2834,0.287,0.2896,0.2915,0.2936,0.2953,0.2961,0.2971,0.2974,0.2967,0.2961,0.2964,0.2961,0.2966,0.2975,0.3032,0.2984,0.2988,0.2991,0.3037,0.3142,0.3161,0.2959,0.2959,0.2959,0,0,0.281,0.2836,0.2849,0.2896,0.2919,0.2942,0.2944,0.2978,0.2989,0.297,0.2977,0.2977,0.2971,0.2983,0.2987,0.2975,0.3071,0.2993,0.2996,0.3042,0.3146,0.3167,0.3184,0.296,0.296,0.296,0,0,0.2821,0.2852,0.2871,0.29,0.2941,0.2958,0.2969,0.2998,0.3007,0.3017,0.3007,0.3028,0.3011,0.3029,0.3029,0.3062,0.3092,0.3043,0.3102,0.3201,0.322,0.3237,0.3311,0.3334,0.3039,0.3039,0.3039,0,0.2817,0.2848,0.2885,0.2908,0.2936,0.2962,0.2987,0.3002,0.3024,0.3053,0.3021,0.3063,0.3044,0.3095,0.3096,0.3074,0.313,0.3078,0.321,0.3228,0.3246,0.3317,0.3343,0.3041,0.3041,0.304,0.304,0,0.2834,0.2863,0.2883,0.2917,0.2952,0.2986,0.3016,0.3049,0.3053,0.3074,0.3132,0.3127,0.3168,0.3146,0.3123,0.3228,0.3228,0.3207,0.3203,0.3268,0.3338,0.3364,0.3043,0.3042,0.3042,0.3041,0,0,0.2811,0.2879,0.2884,0.2915,0.2963,0.3,0.3036,0.3101,0.3155,0.3165,0.3244,0.3242,0.3275,0.3282,0.327,0.3338,0.3474,0.3324,0.3328,0.3406,0.3695,0.3613,0.3634,0.348,0.3485,0.3489,0.3686,0,0.2812,0.286,0.2892,0.2944,0.298,0.3034,0.3077,0.3138,0.3187,0.3268,0.3303,0.3362,0.3312,0.3345,0.3412,0.3469,0.355,0.3423,0.3615,0.3621,0.3549,0.3664,0.3494,0.365,0.3712,0.3717,0.372,0,0.2809,0.2851,0.29,0.2992,0.3015,0.3047,0.3168,0.3213,0.3331,0.3374,0.3461,0.3496,0.3602,0.3545,0.372,0.3644,0.3691,0.3724,0.3732,0.368,0.3591,0.3601,0.3696,0.3664,0.3761,0.3758,0.3755,0,0.2791,0.2859,0.2906,0.2932,0.3029,0.3079,0.3137,0.3252,0.3328,0.3466,0.3544,0.3662,0.3739,0.3836,0.3885,0.3832,0.4076,0.4006,0.3985,0.3977,0.3887,0.3863,0.3989,0.4168,0.4167,0.4167,0.4166,0,0.2791,0.2833,0.2906,0.2936,0.3023,0.3087,0.3199,0.3281,0.3418,0.352,0.3608,0.3715,0.3824,0.3948,0.3979,0.4074,0.4162,0.4051,0.4049,0.3883,0.3858,0.3866,0.3843,0.4174,0.4172,0.4171,0.417,0,0.2793,0.2822,0.2891,0.2986,0.3019,0.3089,0.3227,0.3307,0.3439,0.3584,0.3637,0.3812,0.3969,0.4061,0.4225,0.4192,0.4179,0.4287,0.4069,0.4036,0.3938,0.392,0.3872,0.3762,0.4314,0.4314,0.4313,0,0.2799,0.2832,0.2927,0.2955,0.3003,0.3103,0.3166,0.3305,0.3387,0.3626,0.3689,0.3902,0.4,0.4211,0.4219,0.4299,0.4197,0.418,0.4042,0.3965,0.3946,0.3743,0.3638,0.3929,0.3925,0.3923,0.392,0,0.2837,0.2867,0.2925,0.297,0.3024,0.3106,0.3203,0.327,0.343,0.3533,0.3685,0.3794,0.3998,0.4013,0.4126,0.4135,0.3984,0.4121,0.4123,0.3747,0.3459,0.3337,0.3753,0.3895,0.3897,0.3899,0.3901,0.3902,0.2864,0.2906,0.2949,0.2971,0.3023,0.3069,0.3088,0.3182,0.3277,0.3385,0.3574,0.3652,0.3815,0.3937,0.3927,0.3858,0.3816,0.3774,0.3791,0.3615,0.341,0.3758,0.3831,0.3833,0.3835,0.3837,0.3838,0,0.2872,0.2897,0.2935,0.2943,0.293,0.2993,0.3064,0.3042,0.3054,0.3212,0.3294,0.3438,0.3502,0.3612,0.3651,0.3565,0.3336,0.3516,0.3231,0.3168,0.3582,0.3468,0.3366,0.3366,0.3366,0.3366,0.3366,0.3366,0.2884,0.2892,0.2875,0.281,0.281,0.2769,0.2771,0.2758,0.2821,0.285,0.2907,0.3044,0.3328,0.3517,0.3495,0.3407,0.3201,0.3028,0.3064,0.3423,0.3448,0.3472,0.3361,0.3238,0.3238,0.2457,0.2452,0.2448]},{"header":{"parameterUnit":"m.s-1","parameterCategory":2,"la1":30.2991,"la2":30.254,"lo1":-89.0895,"lo2":-89.0444,"dy":0.0017,"dx":0.0017,"nx":28,"ny":28,"refTime":"2023-08-27T03:00:00:Z","depth":"0","parameterNumber":3,"parameterNumberName":"V-component_of_CURRENTS"},"data":[0,0,0,0,0,0,0,0,0,0,0,0,0,0,0,0,0,0,0,0,0,0,0,0,0,0,0,0,0,0,0,0,0,0,0,0,0,0,0,0,0,0,0,0,0,0,0,0,0,0,0,0,0,0,0,0,0,0,0.0255,0.0255,0,0.0225,0.0224,0.0224,0.0187,0.0186,0.0186,0.0186,0.006,0.0057,0.0054,0,0,0,0,0,0,0,0,0,0,0,0,0,0.0224,0.0225,0.0255,0.0255,0.0255,0.0225,0.0224,0.0224,0.0187,0.0186,0.0186,0.0186,0.0061,0.0058,0.0054,0,0,0,0,0,0,0,0,0,0,0,0,0,0.0218,0.0225,0.0255,0.0235,0.0234,0.0225,0.0224,0.0224,0.0187,0.0186,0.0186,0.0186,0.0062,0.0058,0.0053,0.0034,0,0,0.0039,0.0037,0,0,0,0,0,0,0,0,0.0218,0.0218,0.0238,0.0237,0.0235,0.0212,0.0168,0.0157,0.0187,0.0201,0.0186,0.0185,0.0104,0.0096,0.0089,0.0028,0.0023,0.0039,0.0036,0.0034,0.0033,0,0,0,0,0,0,0,0.0219,0.0219,0.024,0.0238,0.0236,0.0209,0.0207,0.0165,0.0152,0.02,0.0198,0.02,0.0102,0.0093,0.0085,0.0021,0.0039,0.0035,0.0032,0.003,-0.0051,-0.005,0,0,0,0,0,0,0.0232,0.022,0.0241,0.024,0.0229,0.021,0.0208,0.0217,0.0154,0.0146,0.02,0.0198,0.0101,0.0091,0.0081,0.0072,0.0034,0.003,0.0027,-0.0051,-0.0051,-0.005,0,0,0,0,0,0,0.0232,0.0235,0.0243,0.0231,0.023,0.0212,0.0221,0.0217,0.0211,0.0156,0.0145,0.02,0.0101,0.0087,0.0058,0.0066,0.0028,0.0024,-0.0052,-0.0051,-0.005,0.0044,0,0,0,0,0,0,0.0231,0.0235,0.0245,0.0232,0.0232,0.0248,0.0222,0.0217,0.0214,0.0211,0.0152,0.014,0.0099,0.0065,0.0053,0.0059,0.002,-0.0053,-0.0052,-0.0051,0.004,0.0048,0.0054,0,0,0,0,0,0.023,0.0252,0.0246,0.0249,0.0247,0.0249,0.0246,0.0228,0.0215,0.0219,0.0183,0.0142,0.0063,0.0062,0.0048,0.0053,-0.0053,-0.0052,-0.0051,0.0037,0.0046,0.0054,0,0,0,0,0,0,0.0247,0.025,0.0243,0.0266,0.0262,0.0244,0.0251,0.0235,0.0211,0.0207,0.0149,0.0136,0.0111,0.0071,0.0071,0.0033,-0.0003,-0.0004,0.0069,0.0077,0.0084,0.0127,0.0016,0,0,0,0,0,0.0257,0.0272,0.0267,0.0285,0.0288,0.0269,0.0267,0.0256,0.0235,0.0224,0.0184,0.014,0.0105,0.0084,0.0044,0.0025,0.0004,0.0018,0.0026,0.0032,0.0057,0.0045,0.0054,-0.0046,-0.0046,-0.0046,0,0,0.0268,0.0273,0.0281,0.0289,0.0285,0.0297,0.0267,0.0273,0.0282,0.0213,0.0207,0.0162,0.0105,0.0087,0.0071,0.0055,0.0046,0.0034,0.004,0.0062,0.0047,0.0057,0.0066,-0.0045,-0.0045,-0.0045,0,0,0.0302,0.0306,0.0328,0.033,0.0333,0.0323,0.0329,0.0315,0.0309,0.0298,0.0252,0.0224,0.0163,0.0136,0.0111,0.0135,0.0084,0.011,0.0181,0.0169,0.0178,0.0185,0.0163,0.0167,0.0115,0.0115,0.0115,0,0.0315,0.0349,0.0335,0.0356,0.0372,0.034,0.0371,0.0357,0.0334,0.0344,0.0308,0.0252,0.0193,0.0188,0.0192,0.0153,0.0136,0.0153,0.0181,0.0188,0.0194,0.0169,0.0173,0.012,0.0119,0.0119,0.0119,0,0.0363,0.039,0.0408,0.0427,0.0435,0.0459,0.0446,0.0452,0.0435,0.0423,0.0417,0.0347,0.0323,0.0287,0.0243,0.0257,0.0227,0.0192,0.0165,0.021,0.018,0.0183,0.0127,0.0125,0.0124,0.0122,0,0,0.0399,0.0437,0.0442,0.0481,0.0482,0.0506,0.0521,0.0545,0.0585,0.0533,0.0576,0.0497,0.0469,0.044,0.0378,0.0357,0.0364,0.03,0.0297,0.0291,0.0336,0.0308,0.0307,0.0337,0.0338,0.0339,0.0295,0,0.0447,0.0516,0.0514,0.0585,0.0629,0.0618,0.0648,0.0659,0.0657,0.0683,0.0618,0.0621,0.0523,0.0521,0.0484,0.0402,0.0378,0.038,0.0283,0.0281,0.0261,0.0312,0.0285,0.0244,0.0297,0.0297,0.0298,0,0.0499,0.0546,0.0625,0.0704,0.0724,0.0758,0.0832,0.0854,0.0867,0.0865,0.0849,0.0797,0.0759,0.0668,0.0562,0.057,0.0469,0.0393,0.0389,0.0339,0.0259,0.0208,0.0246,0.011,0.0301,0.0301,0.03,0,0.0557,0.0631,0.0709,0.0731,0.0798,0.0849,0.0889,0.0921,0.0978,0.0992,0.1031,0.0958,0.0946,0.0817,0.0644,0.0613,0.0526,0.0458,0.0337,0.0332,0.0281,0.0271,0.0191,0.0394,0.0394,0.0394,0.0394,0,0.0623,0.0691,0.0754,0.0802,0.0921,0.0936,0.1057,0.1083,0.1143,0.1232,0.114,0.1187,0.0987,0.0901,0.0717,0.0548,0.058,0.0374,0.0333,0.031,0.0304,0.0158,0.0053,0.0393,0.0393,0.0393,0.0394,0,0.0689,0.0716,0.0823,0.0915,0.0955,0.1047,0.1175,0.1259,0.13,0.1414,0.1429,0.1379,0.1272,0.1056,0.0853,0.0664,0.0383,0.0411,0.0394,0.0352,0.0107,0.0008,-0.0129,-0.0223,0.0281,0.028,0.028,0,0.0735,0.0795,0.0912,0.0982,0.1036,0.1164,0.1252,0.133,0.1427,0.1538,0.1603,0.1548,0.152,0.1208,0.0858,0.0549,0.0378,0.0324,0.0256,0.0117,-0.0025,-0.0091,-0.0166,0.0211,0.021,0.0209,0.0209,0,0.0845,0.0877,0.0961,0.1089,0.1198,0.133,0.1469,0.157,0.1672,0.1768,0.1879,0.1876,0.1582,0.127,0.0844,0.0603,0.0203,0.0296,0.0159,-0.0066,-0.015,-0.0268,0.0207,0.02,0.0201,0.0202,0.0202,0.0202,0.0928,0.1003,0.1095,0.1216,0.134,0.1494,0.1614,0.175,0.1919,0.2085,0.2075,0.209,0.1658,0.1074,0.0736,0.0146,0.0133,-0.0029,-0.0133,-0.0181,-0.0282,0.018,0.0123,0.0123,0.0124,0.0124,0.0124,0,0.1032,0.1104,0.1218,0.137,0.1505,0.1554,0.1755,0.1875,0.2067,0.2206,0.2299,0.2097,0.1544,0.0991,0.0197,-0.0202,-0.0369,-0.0404,-0.051,-0.0565,-0.0142,-0.0153,-0.0279,-0.0279,-0.0279,-0.0279,-0.0279,-0.0279,0.1091,0.1207,0.1248,0.1477,0.1592,0.1773,0.1887,0.2063,0.2194,0.2357,0.2374,0.2379,0.2016,0.0612,-0.0319,-0.0567,-0.0825,-0.0899,-0.1011,-0.0727,-0.07,-0.0673,-0.0705,-0.0945,-0.0946,-0.1391,-0.1396,-0.1399]}],[{"header":{"parameterUnit":"m.s-1","parameterCategory":2,"la1":30.2991,"la2":30.254,"lo1":-89.0895,"lo2":-89.0444,"dy":0.0017,"dx":0.0017,"nx":28,"ny":28,"refTime":"2023-08-27T03:00:00:Z","depth":"2","parameterNumber":2,"parameterNumberName":"U-component_of_CURRENTS"},"data":[0,0,0,0,0,0,0,0,0,0,0,0,0,0,0,0,0,0,0,0,0,0,0,0,0,0,0,0,0,0,0,0,0,0,0,0,0,0,0,0,0,0,0,0,0,0,0,0,0,0,0,0,0,0,0,0,0,0,0.2803,0.2804,0,0.2855,0.2856,0.2856,0.2856,0.2855,0.2855,0.2854,0.2842,0.2842,0.2842,0,0,0,0,0,0,0,0,0,0,0,0,0,0.2721,0.2722,0.2803,0.2804,0.2805,0.2855,0.2856,0.2856,0.2856,0.2855,0.2855,0.2854,0.2842,0.2842,0.2842,0,0,0,0,0,0,0,0,0,0,0,0,0,0.2761,0.2722,0.2803,0.2813,0.2814,0.2855,0.2856,0.2856,0.2856,0.2855,0.2855,0.2854,0.2842,0.2842,0.2842,0.2857,0,0,0.2842,0.2843,0,0,0,0,0,0,0,0,0.2758,0.2763,0.281,0.2812,0.2814,0.285,0.2822,0.2854,0.2856,0.2838,0.2854,0.2854,0.2841,0.2841,0.285,0.2857,0.2856,0.2842,0.2843,0.2843,0.2843,0,0,0,0,0,0,0,0.2756,0.2761,0.2822,0.2811,0.2813,0.282,0.2825,0.2828,0.284,0.2839,0.284,0.285,0.2841,0.285,0.2849,0.2856,0.2842,0.2843,0.2843,0.2843,0.288,0.2881,0,0,0,0,0,0,0.2754,0.2759,0.282,0.2823,0.2786,0.2822,0.2827,0.2837,0.2841,0.2842,0.285,0.2849,0.285,0.2849,0.2849,0.2869,0.2843,0.2843,0.2843,0.2879,0.288,0.2881,0,0,0,0,0,0,0.2752,0.2759,0.2818,0.2794,0.2802,0.2825,0.2836,0.2839,0.2856,0.285,0.2849,0.2865,0.2849,0.2849,0.2856,0.2868,0.2843,0.2843,0.2878,0.2879,0.2881,0.2908,0,0,0,0,0,0,0.2749,0.2758,0.2769,0.2794,0.2803,0.2857,0.2837,0.2841,0.2863,0.2863,0.2863,0.286,0.2849,0.2856,0.2856,0.2868,0.2843,0.2877,0.2879,0.288,0.2906,0.291,0.2914,0,0,0,0,0,0.2746,0.2767,0.2769,0.2777,0.2817,0.2858,0.2864,0.2875,0.2865,0.2885,0.2873,0.2861,0.2867,0.2857,0.2857,0.2869,0.2876,0.2878,0.288,0.2904,0.2909,0.2914,0,0,0,0,0,0,0.2735,0.277,0.2773,0.2802,0.2833,0.2859,0.2881,0.2884,0.2893,0.2887,0.2872,0.287,0.2884,0.2876,0.2865,0.2886,0.287,0.2872,0.2888,0.2893,0.2897,0.2949,0.2843,0,0,0,0,0,0.2739,0.2764,0.2796,0.2821,0.2839,0.2861,0.2879,0.2886,0.2897,0.2902,0.2896,0.2891,0.2894,0.2891,0.2896,0.2905,0.2953,0.2914,0.2918,0.2921,0.2965,0.3054,0.3071,0.2888,0.2888,0.2888,0,0,0.2742,0.2765,0.2778,0.2821,0.2845,0.2866,0.287,0.2905,0.2914,0.2898,0.2907,0.2909,0.2902,0.2913,0.2918,0.2905,0.2992,0.2924,0.2927,0.297,0.3058,0.3076,0.3092,0.2889,0.2889,0.2889,0,0,0.2753,0.2783,0.2802,0.2829,0.2869,0.2884,0.2896,0.2925,0.2935,0.2947,0.2938,0.2961,0.2945,0.2961,0.2959,0.2993,0.3016,0.2976,0.3032,0.3116,0.3133,0.3148,0.321,0.323,0.2971,0.2971,0.2971,0,0.2751,0.278,0.2816,0.2837,0.2863,0.289,0.2912,0.2928,0.2951,0.2979,0.2951,0.2996,0.2977,0.3025,0.3026,0.3005,0.3052,0.3009,0.3124,0.3141,0.3156,0.3215,0.3238,0.2973,0.2973,0.2972,0.2972,0,0.2765,0.2794,0.2814,0.2846,0.2878,0.291,0.2938,0.2971,0.2978,0.2999,0.3058,0.3056,0.3098,0.3077,0.3053,0.3149,0.3146,0.3124,0.3116,0.3177,0.3234,0.3257,0.2975,0.2974,0.2974,0.2974,0,0,0.2745,0.281,0.2816,0.2843,0.2888,0.2921,0.2956,0.3016,0.3068,0.3083,0.316,0.3162,0.32,0.3206,0.3197,0.3253,0.3369,0.3234,0.3238,0.3304,0.3555,0.3399,0.3409,0.3369,0.3374,0.3378,0.3544,0,0.2746,0.2789,0.282,0.2867,0.29,0.295,0.299,0.3047,0.3096,0.3174,0.3213,0.3273,0.3234,0.3269,0.3326,0.3368,0.3436,0.3327,0.3483,0.3488,0.3348,0.3433,0.3169,0.3282,0.3566,0.357,0.3573,0,0.2743,0.278,0.2825,0.2908,0.2929,0.2961,0.3073,0.3113,0.3228,0.3273,0.3366,0.3401,0.3501,0.3449,0.3601,0.3535,0.3568,0.3587,0.3594,0.3467,0.3376,0.3272,0.3313,0.3612,0.3609,0.3606,0.3604,0,0.2723,0.2787,0.283,0.2852,0.294,0.299,0.3045,0.3155,0.3226,0.3364,0.3433,0.3555,0.3631,0.3708,0.3745,0.3696,0.3902,0.3833,0.3733,0.3721,0.354,0.3503,0.397,0.3969,0.3969,0.3969,0.3968,0,0.2722,0.2762,0.2831,0.286,0.294,0.2999,0.3103,0.3187,0.3319,0.3415,0.3497,0.359,0.3705,0.3811,0.3827,0.3859,0.3981,0.3786,0.3771,0.3534,0.3497,0.3815,0.3795,0.3975,0.3973,0.3972,0.3971,0,0.2723,0.2752,0.2816,0.2904,0.2938,0.3005,0.3136,0.3208,0.3334,0.347,0.3522,0.3677,0.3789,0.3876,0.4012,0.3953,0.3997,0.3977,0.3676,0.362,0.374,0.372,0.3891,0.3887,0.3884,0.3881,0.3879,0,0.273,0.2759,0.2849,0.288,0.293,0.3024,0.3082,0.3215,0.3286,0.3498,0.355,0.372,0.3765,0.3894,0.3876,0.3902,0.3971,0.3638,0.3478,0.3773,0.3742,0.3726,0.371,0.3255,0.3248,0.3242,0.3237,0,0.2763,0.2794,0.2828,0.2878,0.2934,0.3025,0.3115,0.3162,0.331,0.339,0.3499,0.3558,0.368,0.3568,0.3602,0.3567,0.3601,0.3512,0.3967,0.3281,0.3177,0.3144,0.315,0.3185,0.319,0.3194,0.3197,0.3199,0.2753,0.2782,0.2804,0.2825,0.2896,0.2969,0.2988,0.3051,0.311,0.3158,0.3307,0.327,0.3333,0.3206,0.3128,0.3086,0.3312,0.3155,0.3173,0.3197,0.3059,0.2952,0.2892,0.2896,0.2899,0.2901,0.2904,0,0.2708,0.2725,0.2748,0.2752,0.2773,0.2878,0.2946,0.2889,0.284,0.2925,0.2928,0.2687,0.2619,0.2695,0.2561,0.2541,0.2514,0.2421,0.2382,0.2438,0.2487,0.231,0.1947,0.1943,0.1939,0.1936,0,0,0.2676,0.2634,0.2606,0.2574,0.2615,0.2611,0.2619,0.2555,0.2547,0.2403,0.2358,0.249,0.2619,0.2241,0.2202,0.206,0.2219,0.197,0.2752,0.2765,0.2809,0.2939,0.2734,0,0,0,0,0]},{"header":{"parameterUnit":"m.s-1","parameterCategory":2,"la1":30.2991,"la2":30.254,"lo1":-89.0895,"lo2":-89.0444,"dy":0.0017,"dx":0.0017,"nx":28,"ny":28,"refTime":"2023-08-27T03:00:00:Z","depth":"2","parameterNumber":3,"parameterNumberName":"V-component_of_CURRENTS"},"data":[0,0,0,0,0,0,0,0,0,0,0,0,0,0,0,0,0,0,0,0,0,0,0,0,0,0,0,0,0,0,0,0,0,0,0,0,0,0,0,0,0,0,0,0,0,0,0,0,0,0,0,0,0,0,0,0,0,0,0.0164,0.0164,0,0.0135,0.0135,0.0134,0.0101,0.01,0.01,0.01,-0.002,-0.0023,-0.0026,0,0,0,0,0,0,0,0,0,0,0,0,0,0.0137,0.0138,0.0164,0.0164,0.0164,0.0135,0.0135,0.0134,0.0101,0.01,0.01,0.01,-0.0019,-0.0023,-0.0027,0,0,0,0,0,0,0,0,0,0,0,0,0,0.013,0.0138,0.0164,0.0146,0.0144,0.0136,0.0135,0.0134,0.0101,0.01,0.01,0.01,-0.0018,-0.0023,-0.0027,-0.0046,0,0,-0.0041,-0.0042,0,0,0,0,0,0,0,0,0.0131,0.0131,0.0149,0.0147,0.0145,0.0124,0.0081,0.007,0.0101,0.0114,0.01,0.0099,0.0021,0.0014,0.0007,-0.0052,-0.0057,-0.0041,-0.0044,-0.0046,-0.0047,0,0,0,0,0,0,0,0.0131,0.0132,0.015,0.0149,0.0147,0.0121,0.012,0.0079,0.0067,0.0113,0.0111,0.0113,0.0019,0.0011,0.0003,-0.0059,-0.0041,-0.0045,-0.0048,-0.0049,-0.013,-0.013,0,0,0,0,0,0,0.0144,0.0133,0.0151,0.015,0.014,0.0122,0.0121,0.0129,0.0069,0.0061,0.0113,0.0111,0.0019,0.0008,-0.0001,-0.001,-0.0046,-0.005,-0.0052,-0.0131,-0.013,-0.013,0,0,0,0,0,0,0.0144,0.0146,0.0152,0.0142,0.0141,0.0124,0.0133,0.0128,0.0125,0.007,0.006,0.0115,0.0018,0.0005,-0.0023,-0.0016,-0.0052,-0.0056,-0.0131,-0.0131,-0.013,-0.004,0,0,0,0,0,0,0.0143,0.0146,0.0157,0.0143,0.0143,0.0158,0.0133,0.0128,0.0127,0.0125,0.0068,0.0057,0.0017,-0.0016,-0.0028,-0.0023,-0.0059,-0.0132,-0.0131,-0.013,-0.0044,-0.0036,-0.003,0,0,0,0,0,0.0142,0.0163,0.0158,0.016,0.0158,0.0159,0.0156,0.0139,0.0128,0.0133,0.0099,0.0059,-0.0019,-0.0019,-0.0033,-0.0029,-0.0133,-0.0131,-0.013,-0.0047,-0.0038,-0.003,0,0,0,0,0,0,0.016,0.0162,0.0155,0.0177,0.0172,0.0154,0.0162,0.0147,0.0125,0.0122,0.0066,0.0052,0.0029,-0.0011,-0.001,-0.005,-0.0083,-0.0085,-0.0015,-0.0007,-0.0,0.0038,-0.0063,0,0,0,0,0,0.0169,0.0185,0.0178,0.0196,0.0198,0.018,0.0179,0.0168,0.0148,0.0138,0.01,0.0057,0.0022,0.0001,-0.0037,-0.0058,-0.0085,-0.0066,-0.0059,-0.0053,-0.0031,-0.0058,-0.0051,-0.0126,-0.0126,-0.0126,0,0,0.0181,0.0185,0.0193,0.02,0.0196,0.0207,0.0179,0.0186,0.0192,0.0127,0.0122,0.0079,0.0022,0.0002,-0.0013,-0.0029,-0.0048,-0.0051,-0.0045,-0.0027,-0.0056,-0.0049,-0.0042,-0.0125,-0.0125,-0.0126,0,0,0.0213,0.0218,0.024,0.0241,0.0244,0.0233,0.0239,0.0226,0.0219,0.0208,0.0164,0.0137,0.0078,0.0049,0.0023,0.0044,-0.001,0.0021,0.0085,0.0058,0.0065,0.007,0.004,0.0042,0.0025,0.0025,0.0025,0,0.0227,0.0258,0.0246,0.0266,0.0279,0.025,0.0277,0.0264,0.0241,0.0248,0.0218,0.0161,0.0105,0.0093,0.0098,0.0061,0.0036,0.006,0.0069,0.0074,0.0078,0.0046,0.0047,0.0029,0.0029,0.0028,0.0028,0,0.0272,0.0298,0.0315,0.0332,0.0338,0.036,0.0345,0.0349,0.0334,0.0321,0.0312,0.0247,0.0222,0.0188,0.0146,0.0147,0.0117,0.0082,0.0054,0.0091,0.0054,0.0054,0.0036,0.0034,0.0033,0.0032,0,0,0.0308,0.0342,0.0349,0.0382,0.0381,0.04,0.0412,0.0428,0.0461,0.0416,0.0448,0.0376,0.0353,0.0323,0.0265,0.0233,0.0224,0.0177,0.0174,0.0158,0.0166,0.009,0.0082,0.0191,0.0192,0.0192,0.0127,0,0.0354,0.0416,0.0413,0.0476,0.0515,0.0501,0.0524,0.0529,0.0524,0.0542,0.0481,0.0481,0.04,0.0397,0.0353,0.0261,0.0228,0.0245,0.0123,0.012,0.0057,0.0081,0.0108,0.0048,0.0126,0.0126,0.0126,0,0.0403,0.0445,0.0516,0.0581,0.0598,0.0629,0.0687,0.0703,0.0706,0.0704,0.0689,0.0637,0.0592,0.0515,0.0392,0.0408,0.0304,0.0222,0.0216,0.012,0.0044,0.0023,0.0043,0.0124,0.0124,0.0124,0.0125,0,0.0456,0.0522,0.0591,0.061,0.0665,0.0711,0.0745,0.0766,0.0814,0.082,0.0846,0.0775,0.0761,0.0623,0.045,0.0425,0.0308,0.0246,0.0083,0.0076,0.0063,0.0054,0.0168,0.0168,0.0168,0.0168,0.0168,0,0.0515,0.0578,0.0635,0.0678,0.0785,0.0794,0.0897,0.0922,0.097,0.1044,0.0948,0.0972,0.079,0.0691,0.0507,0.0302,0.0352,0.0107,0.0059,0.0092,0.0086,0.0123,0.0119,0.0166,0.0166,0.0167,0.0167,0,0.0574,0.0601,0.0697,0.0779,0.0817,0.0901,0.1013,0.1081,0.1113,0.1207,0.1218,0.1145,0.1001,0.0796,0.058,0.0392,0.0189,0.0103,0.0151,0.0108,-0.0043,-0.0042,-0.0093,-0.0096,-0.0099,-0.0101,-0.0103,0,0.0616,0.067,0.0779,0.0847,0.09,0.1014,0.109,0.1156,0.1232,0.1307,0.1354,0.1262,0.1171,0.0813,0.0506,0.0186,0.0154,-0.0016,-0.0076,-0.0026,-0.0067,-0.0062,-0.0058,-0.0056,-0.0057,-0.0058,-0.0059,0,0.0709,0.0741,0.0799,0.093,0.1033,0.1164,0.1285,0.1361,0.1443,0.15,0.1552,0.1488,0.117,0.084,0.041,0.0186,0.0029,-0.0054,0.0014,-0.0007,0.0,-0.0038,-0.0033,-0.0069,-0.0068,-0.0067,-0.0066,-0.0066,0.0748,0.0812,0.0881,0.0995,0.1112,0.128,0.1398,0.1503,0.1619,0.1699,0.1641,0.153,0.1222,0.0629,0.0287,-0.0057,-0.0053,-0.0203,-0.0195,-0.0187,-0.0184,-0.0183,-0.0285,-0.0286,-0.0286,-0.0286,-0.0286,0,0.0777,0.0848,0.0952,0.1063,0.1181,0.1292,0.1488,0.1572,0.1682,0.1744,0.1727,0.1355,0.0984,0.064,0.0133,-0.0202,-0.02,-0.0322,-0.0229,-0.0218,-0.0209,-0.0203,-0.0312,-0.0313,-0.0314,-0.0314,0,0,0.0791,0.0852,0.0892,0.107,0.1193,0.1371,0.1511,0.1651,0.1723,0.1709,0.1654,0.1506,0.1098,0.0711,0.0288,0.0005,-0.0035,-0.0068,-0.0015,0.0157,0.0171,-0.0113,-0.009,0,0,0,0,0]}],[{"header":{"parameterUnit":"m.s-1","parameterCategory":2,"la1":30.2991,"la2":30.254,"lo1":-89.0895,"lo2":-89.0444,"dy":0.0017,"dx":0.0017,"nx":28,"ny":28,"refTime":"2023-08-27T03:00:00:Z","depth":"4","parameterNumber":2,"parameterNumberName":"U-component_of_CURRENTS"},"data":[0,0,0,0,0,0,0,0,0,0,0,0,0,0,0,0,0,0,0,0,0,0,0,0,0,0,0,0,0,0,0,0,0,0,0,0,0,0,0,0,0,0,0,0,0,0,0,0,0,0,0,0,0,0,0,0,0,0,0.1499,0.15,0,0.1561,0.1562,0.1563,0.1634,0.1635,0.1637,0.1638,0.1739,0.1741,0.1743,0,0,0,0,0,0,0,0,0,0,0,0,0,0.1433,0.1434,0.1499,0.15,0.1501,0.1561,0.1562,0.1563,0.1634,0.1636,0.1637,0.1638,0.1739,0.1741,0.1743,0,0,0,0,0,0,0,0,0,0,0,0,0,0.1475,0.1435,0.1499,0.1544,0.1548,0.1561,0.1562,0.1563,0.1634,0.1636,0.1637,0.1639,0.1738,0.1741,0.1743,0.1727,0,0,0.1751,0.1752,0,0,0,0,0,0,0,0,0.1473,0.1478,0.1536,0.1541,0.1546,0.1592,0.1576,0.162,0.1634,0.1602,0.1638,0.1639,0.1692,0.1699,0.1707,0.1732,0.1736,0.1751,0.1753,0.1754,0.1755,0,0,0,0,0,0,0,0.147,0.1475,0.1524,0.1537,0.1543,0.1557,0.1565,0.1585,0.1638,0.1604,0.161,0.1616,0.1696,0.1704,0.171,0.1738,0.1751,0.1754,0.1755,0.1756,0.1886,0.1887,0,0,0,0,0,0,0.1461,0.1473,0.1522,0.1526,0.1512,0.1557,0.1566,0.1575,0.1637,0.1648,0.1614,0.1619,0.1699,0.1706,0.1713,0.1815,0.1754,0.1756,0.1758,0.1884,0.1886,0.1888,0,0,0,0,0,0,0.1459,0.1465,0.152,0.15,0.1509,0.1557,0.1567,0.1576,0.1618,0.1644,0.1656,0.1651,0.17,0.171,0.1771,0.1815,0.1758,0.176,0.1881,0.1884,0.1887,0.1942,0,0,0,0,0,0,0.1457,0.1464,0.1486,0.15,0.1509,0.1546,0.1565,0.1576,0.1617,0.1625,0.1679,0.1688,0.1702,0.1767,0.1773,0.1817,0.1762,0.1879,0.1883,0.1886,0.1938,0.1947,0.1954,0,0,0,0,0,0.1455,0.1466,0.1486,0.1493,0.1532,0.1546,0.1553,0.1592,0.1617,0.1636,0.1686,0.1688,0.1794,0.177,0.1777,0.1823,0.1877,0.1882,0.1886,0.1934,0.1945,0.1954,0,0,0,0,0,0,0.1448,0.1474,0.1497,0.1518,0.1542,0.1559,0.1584,0.1606,0.1657,0.1683,0.1707,0.1719,0.1792,0.1796,0.1769,0.1872,0.1838,0.1844,0.1873,0.1883,0.1891,0.1892,0.1764,0,0,0,0,0,0.1455,0.1476,0.1499,0.152,0.1535,0.1566,0.1585,0.1613,0.1648,0.1674,0.1718,0.1766,0.1807,0.1837,0.1872,0.192,0.1926,0.1956,0.1964,0.1971,0.1978,0.2037,0.2051,0.1902,0.1902,0.1902,0,0,0.1457,0.1476,0.1489,0.1521,0.1547,0.1577,0.1583,0.1621,0.1663,0.1676,0.1764,0.1797,0.1827,0.1892,0.1925,0.1906,0.2014,0.1976,0.1982,0.1985,0.2043,0.2058,0.2071,0.1905,0.1904,0.1904,0,0,0.1458,0.1492,0.151,0.1537,0.1581,0.1603,0.162,0.1665,0.1708,0.1773,0.1806,0.1866,0.1926,0.1963,0.1983,0.2052,0.2055,0.2071,0.2114,0.2172,0.2184,0.2196,0.2205,0.2217,0.2075,0.2075,0.2075,0,0.1463,0.1494,0.1516,0.1545,0.158,0.1619,0.1655,0.1694,0.1761,0.1803,0.1814,0.1933,0.1958,0.2036,0.2066,0.2071,0.2092,0.2073,0.2182,0.2193,0.2204,0.2211,0.2223,0.2078,0.2078,0.2077,0.2077,0,0.1477,0.1517,0.1531,0.1588,0.1625,0.1663,0.1717,0.1776,0.1832,0.1873,0.1974,0.2015,0.2089,0.2104,0.2107,0.2201,0.2186,0.2185,0.2155,0.2222,0.2225,0.2237,0.2082,0.2081,0.208,0.208,0,0,0.1445,0.1525,0.1535,0.1576,0.166,0.1683,0.1768,0.1844,0.1904,0.1982,0.2067,0.2139,0.2178,0.2203,0.2227,0.2268,0.235,0.2265,0.2267,0.2268,0.2458,0.2292,0.2288,0.238,0.2383,0.2385,0.2423,0,0.1457,0.1513,0.1559,0.1634,0.1673,0.1748,0.1813,0.1894,0.197,0.2063,0.2127,0.2217,0.2211,0.2265,0.2311,0.2348,0.2387,0.2338,0.2397,0.2398,0.2238,0.2298,0.2394,0.2431,0.2434,0.2436,0.2437,0,0.1461,0.1502,0.1575,0.1666,0.1691,0.175,0.1875,0.1939,0.2066,0.2131,0.2238,0.2295,0.2394,0.2376,0.2472,0.2449,0.2466,0.2473,0.2475,0.231,0.2254,0.2356,0.2458,0.2456,0.2455,0.2454,0.2452,0,0.1425,0.1514,0.1577,0.1612,0.1718,0.1783,0.1851,0.1972,0.2034,0.2202,0.2269,0.2389,0.2463,0.252,0.2548,0.2535,0.2624,0.2606,0.2464,0.2451,0.2564,0.2552,0.2676,0.2676,0.2676,0.2676,0.2676,0,0.1413,0.1456,0.1574,0.1605,0.1685,0.1776,0.1872,0.1963,0.2093,0.2166,0.2314,0.2383,0.2509,0.2571,0.2586,0.255,0.2664,0.2476,0.246,0.2582,0.2572,0.257,0.2558,0.2677,0.2677,0.2677,0.2676,0,0.1345,0.1428,0.15,0.1627,0.1671,0.1735,0.1867,0.1915,0.2069,0.218,0.2245,0.2406,0.249,0.2564,0.2646,0.2572,0.2571,0.2532,0.2641,0.263,0.2346,0.2336,0.2373,0.2367,0.2363,0.2359,0.2356,0,0.1308,0.1348,0.1491,0.1534,0.1598,0.1698,0.1744,0.1897,0.1953,0.2162,0.2195,0.2347,0.2436,0.2409,0.2501,0.2514,0.2489,0.2459,0.2412,0.2339,0.2321,0.2318,0.2314,0.2349,0.2348,0.2346,0.2345,0,0.122,0.1292,0.1337,0.1437,0.1513,0.1568,0.1663,0.1695,0.1866,0.2027,0.211,0.2173,0.2253,0.2308,0.2336,0.2341,0.2463,0.2411,0.242,0.2375,0.2311,0.2296,0.2298,0.233,0.2332,0.2333,0.2334,0,0.1146,0.1155,0.1231,0.1318,0.1389,0.141,0.1484,0.1552,0.1633,0.1882,0.1902,0.2074,0.2228,0.2218,0.2244,0.2238,0.2204,0.2123,0.2147,0.2165,0.208,0.1965,0.187,0,0,0,0,0,0.1062,0.1049,0.1099,0.1171,0.1231,0.1284,0.1399,0.1477,0.1667,0.1677,0.179,0.1869,0.1936,0.2017,0.197,0.2129,0.2192,0.2061,0.2105,0.2243,0.2261,0.2179,0,0,0,0,0,0,0.1001,0.1004,0.1041,0.1019,0.1045,0.1087,0.1162,0.1291,0.1313,0.1529,0.1577,0.1745,0.1833,0.1946,0.1933,0.1955,0.194,0.2172,0.2167,0.2232,0.2249,0.2263,0.2186,0,0,0,0,0]},{"header":{"parameterUnit":"m.s-1","parameterCategory":2,"la1":30.2991,"la2":30.254,"lo1":-89.0895,"lo2":-89.0444,"dy":0.0017,"dx":0.0017,"nx":28,"ny":28,"refTime":"2023-08-27T03:00:00:Z","depth":"4","parameterNumber":3,"parameterNumberName":"V-component_of_CURRENTS"},"data":[0,0,0,0,0,0,0,0,0,0,0,0,0,0,0,0,0,0,0,0,0,0,0,0,0,0,0,0,0,0,0,0,0,0,0,0,0,0,0,0,0,0,0,0,0,0,0,0,0,0,0,0,0,0,0,0,0,0,-0.0004,-0.0004,0,-0.0028,-0.0029,-0.0029,-0.0051,-0.0051,-0.0051,-0.0051,-0.0123,-0.0125,-0.0127,0,0,0,0,0,0,0,0,0,0,0,0,0,-0.0027,-0.0026,-0.0004,-0.0004,-0.0004,-0.0028,-0.0029,-0.0029,-0.0051,-0.0051,-0.0051,-0.0051,-0.0122,-0.0125,-0.0127,0,0,0,0,0,0,0,0,0,0,0,0,0,-0.0032,-0.0026,-0.0003,-0.0016,-0.0018,-0.0028,-0.0029,-0.0029,-0.0051,-0.0051,-0.0051,-0.0052,-0.0122,-0.0124,-0.0127,-0.0141,0,0,-0.0136,-0.0137,0,0,0,0,0,0,0,0,-0.0032,-0.0032,-0.0014,-0.0015,-0.0017,-0.0035,-0.0063,-0.0069,-0.0051,-0.004,-0.0051,-0.0052,-0.0097,-0.0101,-0.0108,-0.0145,-0.0148,-0.0136,-0.0137,-0.0139,-0.0139,0,0,0,0,0,0,0,-0.0031,-0.0031,-0.0015,-0.0014,-0.0016,-0.0038,-0.0039,-0.0064,-0.007,-0.0041,-0.0043,-0.0042,-0.0098,-0.0105,-0.011,-0.0149,-0.0136,-0.0138,-0.014,-0.0141,-0.0205,-0.0205,0,0,0,0,0,0,-0.0021,-0.003,-0.0014,-0.0016,-0.0023,-0.0037,-0.0038,-0.0031,-0.0069,-0.0074,-0.0042,-0.0043,-0.01,-0.0107,-0.0112,-0.0124,-0.0139,-0.0141,-0.0143,-0.0205,-0.0205,-0.0205,0,0,0,0,0,0,-0.0022,-0.0019,-0.0013,-0.0023,-0.0023,-0.0036,-0.0028,-0.0031,-0.0037,-0.0068,-0.0075,-0.0044,-0.0101,-0.0109,-0.0126,-0.0128,-0.0142,-0.0145,-0.0205,-0.0205,-0.0205,-0.0153,0,0,0,0,0,0,-0.0022,-0.0019,-0.0013,-0.0022,-0.0022,-0.0014,-0.0028,-0.0031,-0.0036,-0.0037,-0.0072,-0.0079,-0.0101,-0.0122,-0.0129,-0.0132,-0.0147,-0.0205,-0.0205,-0.0205,-0.0155,-0.0151,-0.0149,0,0,0,0,0,-0.0023,-0.001,-0.0013,-0.0011,-0.0012,-0.0013,-0.0016,-0.0028,-0.0035,-0.0034,-0.0055,-0.0078,-0.0128,-0.0124,-0.0132,-0.0136,-0.0205,-0.0205,-0.0205,-0.0156,-0.0152,-0.0149,0,0,0,0,0,0,-0.0016,-0.0011,-0.0014,-0.0,-0.0004,-0.0016,-0.0015,-0.0025,-0.004,-0.0042,-0.0075,-0.0082,-0.01,-0.0125,-0.012,-0.0156,-0.0172,-0.0174,-0.0132,-0.0129,-0.0126,-0.012,-0.0149,0,0,0,0,0,-0.0011,0.0,-0.0002,0.0008,0.0009,-0.0004,-0.0007,-0.0014,-0.0026,-0.0033,-0.0055,-0.0083,-0.0108,-0.0122,-0.0147,-0.0164,-0.0195,-0.0174,-0.0171,-0.0168,-0.017,-0.0209,-0.021,-0.0205,-0.0205,-0.0205,0,0,-0.0007,-0.0001,0.0004,0.001,0.0006,0.0011,-0.0006,-0.0004,-0.0003,-0.004,-0.0045,-0.0071,-0.011,-0.0126,-0.0137,-0.0147,-0.0186,-0.0168,-0.0165,-0.0169,-0.021,-0.021,-0.0211,-0.0205,-0.0205,-0.0205,0,0,0.0009,0.0015,0.0028,0.0028,0.0029,0.0023,0.0026,0.0017,0.0011,0.0003,-0.0024,-0.0048,-0.0081,-0.0109,-0.0128,-0.0125,-0.0166,-0.0136,-0.0118,-0.0155,-0.0156,-0.0157,-0.0194,-0.0199,-0.0136,-0.0136,-0.0136,0,0.0014,0.0033,0.0029,0.0042,0.0046,0.0032,0.0044,0.0035,0.0021,0.0015,0.0009,-0.0046,-0.0075,-0.0106,-0.0103,-0.0119,-0.0146,-0.0125,-0.0151,-0.0152,-0.0154,-0.0192,-0.0198,-0.0134,-0.0134,-0.0134,-0.0134,0,0.0038,0.0052,0.0061,0.0073,0.0076,0.0085,0.0078,0.0075,0.0066,0.0052,0.0027,-0.0011,-0.0042,-0.0059,-0.0079,-0.0109,-0.0126,-0.0139,-0.0157,-0.0151,-0.0192,-0.0199,-0.013,-0.0131,-0.0132,-0.0132,0,0,0.0054,0.0075,0.0078,0.0091,0.0095,0.0102,0.0104,0.01,0.0103,0.0077,0.0073,0.0023,0.0002,-0.0022,-0.0055,-0.0093,-0.0126,-0.0116,-0.012,-0.0147,-0.0211,-0.0196,-0.0203,-0.0141,-0.0142,-0.0143,-0.0233,0,0.0074,0.0107,0.0109,0.0135,0.0153,0.0143,0.0147,0.0138,0.0129,0.0123,0.0072,0.0059,0.0017,0.001,-0.0037,-0.0101,-0.0143,-0.0101,-0.0218,-0.0222,-0.0204,-0.021,-0.0146,-0.0239,-0.024,-0.0241,-0.0242,0,0.0096,0.012,0.0152,0.0174,0.018,0.0191,0.02,0.0203,0.0182,0.0177,0.0145,0.0113,0.0057,0.003,-0.0093,-0.0063,-0.0132,-0.0188,-0.0193,-0.0203,-0.022,-0.0248,-0.0256,-0.0255,-0.0254,-0.0253,-0.0252,0,0.0112,0.0147,0.0177,0.0186,0.0207,0.0217,0.0226,0.0218,0.0232,0.0217,0.0228,0.0149,0.0127,0.0022,-0.0091,-0.0091,-0.0225,-0.024,-0.0299,-0.0299,-0.0308,-0.0307,-0.0328,-0.0328,-0.0328,-0.0328,-0.0328,0,0.013,0.0152,0.0191,0.0206,0.0248,0.0248,0.0278,0.0281,0.0288,0.0316,0.0262,0.0263,0.0126,0.0038,-0.0078,-0.0208,-0.022,-0.03,-0.0321,-0.0285,-0.0279,-0.0314,-0.0311,-0.0331,-0.0331,-0.033,-0.0329,0,0.0128,0.0154,0.0198,0.0239,0.0256,0.0287,0.033,0.0352,0.0357,0.0395,0.04,0.0344,0.0236,0.0087,-0.0082,-0.0176,-0.031,-0.0354,-0.0303,-0.032,-0.0365,-0.0358,-0.043,-0.0431,-0.0431,-0.0431,-0.0431,0,0.0131,0.0153,0.0224,0.0267,0.0289,0.0335,0.0367,0.0389,0.0424,0.0446,0.047,0.0392,0.0335,0.0109,-0.0059,-0.0286,-0.0316,-0.039,-0.0383,-0.0361,-0.0376,-0.0369,-0.0362,-0.0432,-0.0432,-0.0432,-0.0432,0,0.0136,0.0162,0.0199,0.029,0.0348,0.0401,0.0454,0.0488,0.0521,0.0534,0.0543,0.0442,0.0321,0.0134,-0.0041,-0.0206,-0.0345,-0.0393,-0.0393,-0.0388,-0.0363,-0.0376,-0.0369,-0.0432,-0.0432,-0.0432,-0.0432,0,0.0145,0.0173,0.0232,0.0315,0.0389,0.0453,0.0475,0.0522,0.0556,0.0593,0.0593,0.0473,0.0405,0.0175,0.0011,-0.0147,-0.0189,-0.0243,-0.0253,-0.0254,-0.0177,-0.0118,-0.0132,0,0,0,0,0,0.0152,0.0184,0.0256,0.0347,0.0419,0.046,0.0529,0.0547,0.059,0.0615,0.0611,0.0508,0.03,0.0202,0.0048,-0.0025,-0.0244,-0.0213,-0.0317,-0.0436,-0.0435,-0.0373,0,0,0,0,0,0,0.0159,0.0209,0.025,0.0358,0.0418,0.0491,0.0534,0.0562,0.0573,0.0603,0.0493,0.0469,0.0252,0.0391,0.0047,-0.0001,-0.0089,-0.0307,-0.031,-0.0436,-0.0436,-0.0435,-0.0371,0,0,0,0,0]}]]